Wetterdaten: Sonntag, 27.05.2018
Datum Zeit Temp. I. Temp. A. Boden 5 cm Feuchte A. Sonne Luftdruck Regen Wind Sonnenschein Zeit Regen
27.05.2018 00:00 22,7 C 17,1 C 19,5 C 80 % 0 % 1023 hPa 0,0 l/m 0,1 km/h (0 Bft) 0 min 0 min
27.05.2018 00:03 22,7 C 17,1 C 19,3 C 80 % 0 % 1023 hPa 0,0 l/m 0,0 km/h (0 Bft) 0 min 0 min
27.05.2018 00:06 22,7 C 17,1 C 19,3 C 80 % 0 % 1023 hPa 0,0 l/m 0,0 km/h (0 Bft) 0 min 0 min
27.05.2018 00:09 22,7 C 17,0 C 19,4 C 80 % 0 % 1023 hPa 0,0 l/m 0,4 km/h (0 Bft) 0 min 0 min
27.05.2018 00:12 22,7 C 17,0 C 19,4 C 80 % 0 % 1023 hPa 0,0 l/m 0,1 km/h (0 Bft) 0 min 0 min
27.05.2018 00:15 22,7 C 17,0 C 19,4 C 81 % 0 % 1023 hPa 0,0 l/m 0,0 km/h (0 Bft) 0 min 0 min
27.05.2018 00:18 22,7 C 17,0 C 19,4 C 80 % 0 % 1023 hPa 0,0 l/m 0,0 km/h (0 Bft) 0 min 0 min
27.05.2018 00:21 22,7 C 16,9 C 19,3 C 80 % 0 % 1023 hPa 0,0 l/m 0,0 km/h (0 Bft) 0 min 0 min
27.05.2018 00:24 22,7 C 16,9 C 19,3 C 80 % 0 % 1023 hPa 0,0 l/m 0,3 km/h (0 Bft) 0 min 0 min
27.05.2018 00:27 22,7 C 16,9 C 19,1 C 81 % 0 % 1023 hPa 0,0 l/m 0,3 km/h (0 Bft) 0 min 0 min
27.05.2018 00:30 22,6 C 16,8 C 19,0 C 80 % 0 % 1023 hPa 0,0 l/m 0,5 km/h (0 Bft) 0 min 0 min
27.05.2018 00:33 22,6 C 16,7 C 19,0 C 81 % 0 % 1023 hPa 0,0 l/m 1,8 km/h (1 Bft) 0 min 0 min
27.05.2018 00:36 22,6 C 16,6 C 19,0 C 81 % 0 % 1023 hPa 0,0 l/m 2,2 km/h (1 Bft) 0 min 0 min
27.05.2018 00:39 22,6 C 16,5 C 18,9 C 81 % 0 % 1023 hPa 0,0 l/m 2,2 km/h (1 Bft) 0 min 0 min
27.05.2018 00:42 22,6 C 16,5 C 18,9 C 81 % 0 % 1023 hPa 0,0 l/m 2,2 km/h (1 Bft) 0 min 0 min
27.05.2018 00:45 22,6 C 16,4 C 18,9 C 81 % 0 % 1023 hPa 0,0 l/m 2,5 km/h (1 Bft) 0 min 0 min
27.05.2018 00:48 22,6 C 16,4 C 18,9 C 81 % 0 % 1023 hPa 0,0 l/m 2,7 km/h (1 Bft) 0 min 0 min
27.05.2018 00:51 22,6 C 16,3 C 18,8 C 81 % 0 % 1023 hPa 0,0 l/m 1,4 km/h (1 Bft) 0 min 0 min
27.05.2018 00:54 22,6 C 16,3 C 18,9 C 81 % 0 % 1023 hPa 0,0 l/m 0,6 km/h (0 Bft) 0 min 0 min
27.05.2018 00:57 22,6 C 16,3 C 18,9 C 82 % 0 % 1023 hPa 0,0 l/m 0,8 km/h (0 Bft) 0 min 0 min
27.05.2018 01:00 22,6 C 16,3 C 18,7 C 82 % 0 % 1023 hPa 0,0 l/m 1,2 km/h (1 Bft) 0 min 0 min
27.05.2018 01:03 22,6 C 16,3 C 18,7 C 82 % 0 % 1023 hPa 0,0 l/m 2,7 km/h (1 Bft) 0 min 0 min
27.05.2018 01:06 22,6 C 16,3 C 18,7 C 82 % 0 % 1023 hPa 0,0 l/m 1,2 km/h (1 Bft) 0 min 0 min
27.05.2018 01:09 22,6 C 16,2 C 18,7 C 81 % 0 % 1023 hPa 0,0 l/m 1,0 km/h (0 Bft) 0 min 0 min
27.05.2018 01:12 22,6 C 16,2 C 18,5 C 81 % 0 % 1023 hPa 0,0 l/m 1,9 km/h (1 Bft) 0 min 0 min
27.05.2018 01:15 22,6 C 16,1 C 18,6 C 82 % 0 % 1023 hPa 0,0 l/m 3,6 km/h (1 Bft) 0 min 0 min
27.05.2018 01:18 22,6 C 16,1 C 18,5 C 82 % 0 % 1023 hPa 0,0 l/m 0,7 km/h (0 Bft) 0 min 0 min
27.05.2018 01:21 22,6 C 16,0 C 18,5 C 82 % 0 % 1023 hPa 0,0 l/m 2,3 km/h (1 Bft) 0 min 0 min
27.05.2018 01:24 22,6 C 16,0 C 18,5 C 82 % 0 % 1023 hPa 0,0 l/m 1,8 km/h (1 Bft) 0 min 0 min
27.05.2018 01:27 22,5 C 16,0 C 18,4 C 82 % 0 % 1023 hPa 0,0 l/m 0,7 km/h (0 Bft) 0 min 0 min
27.05.2018 01:30 22,5 C 16,0 C 18,4 C 82 % 0 % 1023 hPa 0,0 l/m 0,7 km/h (0 Bft) 0 min 0 min
27.05.2018 01:33 22,5 C 15,9 C 18,4 C 82 % 0 % 1023 hPa 0,0 l/m 3,6 km/h (1 Bft) 0 min 0 min
27.05.2018 01:36 22,5 C 15,9 C 18,5 C 82 % 0 % 1023 hPa 0,0 l/m 0,3 km/h (0 Bft) 0 min 0 min
27.05.2018 01:39 22,5 C 16,0 C 18,4 C 82 % 0 % 1023 hPa 0,0 l/m 0,2 km/h (0 Bft) 0 min 0 min
27.05.2018 01:42 22,5 C 15,9 C 18,5 C 82 % 0 % 1023 hPa 0,0 l/m 0,2 km/h (0 Bft) 0 min 0 min
27.05.2018 01:45 22,5 C 16,0 C 18,5 C 82 % 0 % 1023 hPa 0,0 l/m 0,0 km/h (0 Bft) 0 min 0 min
27.05.2018 01:48 22,5 C 16,0 C 18,4 C 82 % 0 % 1023 hPa 0,0 l/m 0,0 km/h (0 Bft) 0 min 0 min
27.05.2018 01:51 22,5 C 16,0 C 18,3 C 82 % 0 % 1022 hPa 0,0 l/m 0,0 km/h (0 Bft) 0 min 0 min
27.05.2018 01:54 22,5 C 15,9 C 18,4 C 82 % 0 % 1022 hPa 0,0 l/m 0,0 km/h (0 Bft) 0 min 0 min
27.05.2018 01:57 22,5 C 15,9 C 18,3 C 82 % 0 % 1022 hPa 0,0 l/m 0,0 km/h (0 Bft) 0 min 0 min
27.05.2018 02:00 22,5 C 15,8 C 18,2 C 82 % 0 % 1022 hPa 0,0 l/m 0,0 km/h (0 Bft) 0 min 0 min
27.05.2018 02:03 22,5 C 15,8 C 18,3 C 82 % 0 % 1022 hPa 0,0 l/m 0,0 km/h (0 Bft) 0 min 0 min
27.05.2018 02:06 22,5 C 15,7 C 18,2 C 82 % 0 % 1022 hPa 0,0 l/m 0,0 km/h (0 Bft) 0 min 0 min
27.05.2018 02:09 22,5 C 15,6 C 18,1 C 82 % 0 % 1022 hPa 0,0 l/m 0,0 km/h (0 Bft) 0 min 0 min
27.05.2018 02:12 22,5 C 15,6 C 18,1 C 82 % 0 % 1022 hPa 0,0 l/m 0,0 km/h (0 Bft) 0 min 0 min
27.05.2018 02:15 22,5 C 15,5 C 18,0 C 82 % 0 % 1022 hPa 0,0 l/m 0,0 km/h (0 Bft) 0 min 0 min
27.05.2018 02:18 22,5 C 15,4 C 18,0 C 82 % 0 % 1022 hPa 0,0 l/m 0,0 km/h (0 Bft) 0 min 0 min
27.05.2018 02:21 22,5 C 15,2 C 18,0 C 82 % 0 % 1022 hPa 0,0 l/m 0,0 km/h (0 Bft) 0 min 0 min
27.05.2018 02:24 22,5 C 15,2 C 18,0 C 82 % 0 % 1022 hPa 0,0 l/m 0,0 km/h (0 Bft) 0 min 0 min
27.05.2018 02:27 22,5 C 15,2 C 18,1 C 82 % 0 % 1022 hPa 0,0 l/m 0,0 km/h (0 Bft) 0 min 0 min
27.05.2018 02:30 22,4 C 15,2 C 18,0 C 82 % 0 % 1022 hPa 0,0 l/m 0,0 km/h (0 Bft) 0 min 0 min
27.05.2018 02:33 22,5 C 15,2 C 17,8 C 82 % 0 % 1022 hPa 0,0 l/m 0,0 km/h (0 Bft) 0 min 0 min
27.05.2018 02:36 22,4 C 15,2 C 17,8 C 82 % 0 % 1022 hPa 0,0 l/m 0,0 km/h (0 Bft) 0 min 0 min
27.05.2018 02:39 22,5 C 15,0 C 17,7 C 82 % 0 % 1022 hPa 0,0 l/m 0,0 km/h (0 Bft) 0 min 0 min
27.05.2018 02:42 22,4 C 15,0 C 17,7 C 83 % 0 % 1022 hPa 0,0 l/m 0,0 km/h (0 Bft) 0 min 0 min
27.05.2018 02:45 22,4 C 15,0 C 17,7 C 83 % 0 % 1022 hPa 0,0 l/m 0,8 km/h (0 Bft) 0 min 0 min
27.05.2018 02:48 22,4 C 15,0 C 17,7 C 83 % 0 % 1022 hPa 0,0 l/m 1,8 km/h (1 Bft) 0 min 0 min
27.05.2018 02:51 22,4 C 15,0 C 17,7 C 83 % 0 % 1022 hPa 0,0 l/m 1,7 km/h (1 Bft) 0 min 0 min
27.05.2018 02:54 22,4 C 15,0 C 17,8 C 83 % 0 % 1022 hPa 0,0 l/m 0,0 km/h (0 Bft) 0 min 0 min
27.05.2018 02:57 22,4 C 15,0 C 17,7 C 83 % 0 % 1022 hPa 0,0 l/m 0,0 km/h (0 Bft) 0 min 0 min
27.05.2018 03:00 22,4 C 15,0 C 17,8 C 83 % 0 % 1022 hPa 0,0 l/m 0,0 km/h (0 Bft) 0 min 0 min
27.05.2018 03:03 22,4 C 15,0 C 17,6 C 83 % 0 % 1022 hPa 0,0 l/m 0,0 km/h (0 Bft) 0 min 0 min
27.05.2018 03:06 22,4 C 15,0 C 17,6 C 83 % 0 % 1022 hPa 0,0 l/m 0,0 km/h (0 Bft) 0 min 0 min
27.05.2018 03:09 22,4 C 15,0 C 17,6 C 82 % 0 % 1022 hPa 0,0 l/m 0,0 km/h (0 Bft) 0 min 0 min
27.05.2018 03:12 22,4 C 15,0 C 17,7 C 82 % 0 % 1022 hPa 0,0 l/m 0,0 km/h (0 Bft) 0 min 0 min
27.05.2018 03:15 22,4 C 15,0 C 17,7 C 82 % 0 % 1022 hPa 0,0 l/m 0,0 km/h (0 Bft) 0 min 0 min
27.05.2018 03:18 22,4 C 15,0 C 17,7 C 82 % 0 % 1022 hPa 0,0 l/m 0,0 km/h (0 Bft) 0 min 0 min
27.05.2018 03:21 22,4 C 15,0 C 17,5 C 82 % 0 % 1022 hPa 0,0 l/m 0,0 km/h (0 Bft) 0 min 0 min
27.05.2018 03:24 22,4 C 15,0 C 17,5 C 82 % 0 % 1022 hPa 0,0 l/m 0,0 km/h (0 Bft) 0 min 0 min
27.05.2018 03:27 22,4 C 15,0 C 17,5 C 82 % 0 % 1022 hPa 0,0 l/m 0,0 km/h (0 Bft) 0 min 0 min
27.05.2018 03:30 22,4 C 15,0 C 17,5 C 82 % 0 % 1022 hPa 0,0 l/m 0,0 km/h (0 Bft) 0 min 0 min
27.05.2018 03:33 22,4 C 15,0 C 17,5 C 82 % 0 % 1022 hPa 0,0 l/m 0,0 km/h (0 Bft) 0 min 0 min
27.05.2018 03:36 22,4 C 15,0 C 17,3 C 82 % 0 % 1022 hPa 0,0 l/m 0,0 km/h (0 Bft) 0 min 0 min
27.05.2018 03:39 22,4 C 15,0 C 17,2 C 82 % 0 % 1022 hPa 0,0 l/m 0,0 km/h (0 Bft) 0 min 0 min
27.05.2018 03:42 22,4 C 15,0 C 17,3 C 82 % 0 % 1022 hPa 0,0 l/m 0,0 km/h (0 Bft) 0 min 0 min
27.05.2018 03:45 22,4 C 15,0 C 17,4 C 82 % 0 % 1022 hPa 0,0 l/m 0,0 km/h (0 Bft) 0 min 0 min
27.05.2018 03:48 22,4 C 15,0 C 17,4 C 82 % 0 % 1022 hPa 0,0 l/m 0,0 km/h (0 Bft) 0 min 0 min
27.05.2018 03:51 22,4 C 15,0 C 17,2 C 82 % 0 % 1022 hPa 0,0 l/m 0,0 km/h (0 Bft) 0 min 0 min
27.05.2018 03:54 22,4 C 15,0 C 17,1 C 82 % 0 % 1022 hPa 0,0 l/m 0,0 km/h (0 Bft) 0 min 0 min
27.05.2018 03:57 22,4 C 15,0 C 17,2 C 82 % 0 % 1022 hPa 0,0 l/m 0,0 km/h (0 Bft) 0 min 0 min
27.05.2018 04:00 22,3 C 15,0 C 17,0 C 82 % 0 % 1022 hPa 0,0 l/m 0,0 km/h (0 Bft) 0 min 0 min
27.05.2018 04:03 22,3 C 15,0 C 17,0 C 82 % 0 % 1022 hPa 0,0 l/m 0,0 km/h (0 Bft) 0 min 0 min
27.05.2018 04:06 22,3 C 15,0 C 17,0 C 82 % 0 % 1022 hPa 0,0 l/m 0,0 km/h (0 Bft) 0 min 0 min
27.05.2018 04:09 22,3 C 15,0 C 17,0 C 83 % 0 % 1022 hPa 0,0 l/m 0,0 km/h (0 Bft) 0 min 0 min
27.05.2018 04:12 22,3 C 15,0 C 17,1 C 83 % 0 % 1022 hPa 0,0 l/m 0,0 km/h (0 Bft) 0 min 0 min
27.05.2018 04:15 22,4 C 15,0 C 17,1 C 83 % 0 % 1022 hPa 0,0 l/m 0,0 km/h (0 Bft) 0 min 0 min
27.05.2018 04:18 22,3 C 15,0 C 17,0 C 83 % 0 % 1021 hPa 0,0 l/m 0,0 km/h (0 Bft) 0 min 0 min
27.05.2018 04:21 22,3 C 15,0 C 17,0 C 83 % 0 % 1021 hPa 0,0 l/m 0,0 km/h (0 Bft) 0 min 0 min
27.05.2018 04:24 22,3 C 15,0 C 17,0 C 83 % 0 % 1021 hPa 0,0 l/m 0,0 km/h (0 Bft) 0 min 0 min
27.05.2018 04:27 22,3 C 15,0 C 16,9 C 83 % 0 % 1021 hPa 0,0 l/m 0,0 km/h (0 Bft) 0 min 0 min
27.05.2018 04:30 22,3 C 15,0 C 16,9 C 83 % 0 % 1021 hPa 0,0 l/m 0,0 km/h (0 Bft) 0 min 0 min
27.05.2018 04:33 22,3 C 15,0 C 16,9 C 83 % 0 % 1021 hPa 0,0 l/m 0,0 km/h (0 Bft) 0 min 0 min
27.05.2018 04:36 22,3 C 15,0 C 16,8 C 83 % 0 % 1021 hPa 0,0 l/m 0,0 km/h (0 Bft) 0 min 0 min
27.05.2018 04:39 22,3 C 15,0 C 16,8 C 83 % 0 % 1021 hPa 0,0 l/m 0,0 km/h (0 Bft) 0 min 0 min
27.05.2018 04:42 22,3 C 15,0 C 16,7 C 83 % 0 % 1021 hPa 0,0 l/m 0,0 km/h (0 Bft) 0 min 0 min
27.05.2018 04:45 22,3 C 15,0 C 16,8 C 83 % 0 % 1021 hPa 0,0 l/m 0,0 km/h (0 Bft) 0 min 0 min
27.05.2018 04:48 22,3 C 15,0 C 16,8 C 83 % 0 % 1021 hPa 0,0 l/m 0,0 km/h (0 Bft) 0 min 0 min
27.05.2018 04:51 22,3 C 15,0 C 16,8 C 83 % 0 % 1021 hPa 0,0 l/m 0,0 km/h (0 Bft) 0 min 0 min
27.05.2018 04:54 22,3 C 15,0 C 16,7 C 83 % 0 % 1021 hPa 0,0 l/m 0,0 km/h (0 Bft) 0 min 0 min
27.05.2018 04:57 22,3 C 15,0 C 16,7 C 83 % 0 % 1021 hPa 0,0 l/m 0,0 km/h (0 Bft) 0 min 0 min
27.05.2018 05:00 22,2 C 15,0 C 16,8 C 83 % 0 % 1021 hPa 0,0 l/m 0,0 km/h (0 Bft) 0 min 0 min
27.05.2018 05:03 22,2 C 15,0 C 16,6 C 83 % 0 % 1021 hPa 0,0 l/m 0,0 km/h (0 Bft) 0 min 0 min
27.05.2018 05:06 22,2 C 15,0 C 16,6 C 84 % 1 % 1021 hPa 0,0 l/m 0,0 km/h (0 Bft) 0 min 0 min
27.05.2018 05:09 22,2 C 15,0 C 16,6 C 84 % 1 % 1021 hPa 0,0 l/m 0,0 km/h (0 Bft) 0 min 0 min
27.05.2018 05:12 22,2 C 15,0 C 16,7 C 84 % 1 % 1021 hPa 0,0 l/m 0,0 km/h (0 Bft) 0 min 0 min
27.05.2018 05:15 22,2 C 15,0 C 16,6 C 84 % 1 % 1021 hPa 0,0 l/m 0,0 km/h (0 Bft) 0 min 0 min
27.05.2018 05:18 22,2 C 15,0 C 16,6 C 84 % 2 % 1021 hPa 0,0 l/m 0,0 km/h (0 Bft) 0 min 0 min
27.05.2018 05:21 22,2 C 15,0 C 16,6 C 84 % 2 % 1021 hPa 0,0 l/m 0,0 km/h (0 Bft) 0 min 0 min
27.05.2018 05:24 22,2 C 15,0 C 16,5 C 84 % 3 % 1021 hPa 0,0 l/m 0,0 km/h (0 Bft) 0 min 0 min
27.05.2018 05:27 22,2 C 15,0 C 16,4 C 84 % 4 % 1021 hPa 0,0 l/m 0,0 km/h (0 Bft) 3 min 0 min
27.05.2018 05:30 22,2 C 15,0 C 16,4 C 84 % 4 % 1021 hPa 0,0 l/m 0,0 km/h (0 Bft) 3 min 0 min
27.05.2018 05:33 22,2 C 15,0 C 16,4 C 84 % 5 % 1021 hPa 0,0 l/m 0,0 km/h (0 Bft) 3 min 0 min
27.05.2018 05:36 22,2 C 15,0 C 16,5 C 84 % 5 % 1021 hPa 0,0 l/m 0,0 km/h (0 Bft) 3 min 0 min
27.05.2018 05:39 22,2 C 15,0 C 16,4 C 84 % 6 % 1021 hPa 0,0 l/m 0,0 km/h (0 Bft) 3 min 0 min
27.05.2018 05:42 22,2 C 15,0 C 16,4 C 84 % 7 % 1021 hPa 0,0 l/m 0,0 km/h (0 Bft) 3 min 0 min
27.05.2018 05:45 22,2 C 15,0 C 16,3 C 84 % 7 % 1021 hPa 0,0 l/m 0,0 km/h (0 Bft) 3 min 0 min
27.05.2018 05:48 22,2 C 15,0 C 16,3 C 84 % 9 % 1021 hPa 0,0 l/m 0,0 km/h (0 Bft) 3 min 0 min
27.05.2018 05:51 22,2 C 15,0 C 16,3 C 86 % 9 % 1021 hPa 0,0 l/m 0,0 km/h (0 Bft) 0 min 0 min
27.05.2018 05:54 22,2 C 15,0 C 16,3 C 87 % 10 % 1021 hPa 0,0 l/m 0,0 km/h (0 Bft) 0 min 0 min
27.05.2018 05:57 22,2 C 15,0 C 16,3 C 88 % 11 % 1021 hPa 0,0 l/m 0,0 km/h (0 Bft) 0 min 0 min
27.05.2018 06:00 22,2 C 15,0 C 16,3 C 89 % 12 % 1021 hPa 0,0 l/m 0,0 km/h (0 Bft) 0 min 0 min
27.05.2018 06:03 22,1 C 15,0 C 16,3 C 90 % 13 % 1021 hPa 0,0 l/m 0,0 km/h (0 Bft) 0 min 0 min
27.05.2018 06:06 22,1 C 15,0 C 16,4 C 91 % 13 % 1021 hPa 0,0 l/m 0,0 km/h (0 Bft) 0 min 0 min
27.05.2018 06:09 22,2 C 15,0 C 16,5 C 91 % 14 % 1021 hPa 0,0 l/m 0,0 km/h (0 Bft) 0 min 0 min
27.05.2018 06:12 22,2 C 15,0 C 16,5 C 92 % 15 % 1021 hPa 0,0 l/m 0,0 km/h (0 Bft) 0 min 0 min
27.05.2018 06:15 22,2 C 15,0 C 16,5 C 92 % 15 % 1021 hPa 0,0 l/m 0,0 km/h (0 Bft) 0 min 0 min
27.05.2018 06:18 22,2 C 15,0 C 16,5 C 91 % 16 % 1021 hPa 0,0 l/m 0,0 km/h (0 Bft) 0 min 0 min
27.05.2018 06:21 22,2 C 15,0 C 16,4 C 91 % 16 % 1021 hPa 0,0 l/m 0,0 km/h (0 Bft) 0 min 0 min
27.05.2018 06:24 22,2 C 15,0 C 16,5 C 91 % 17 % 1021 hPa 0,0 l/m 0,0 km/h (0 Bft) 0 min 0 min
27.05.2018 06:27 22,2 C 15,0 C 16,4 C 92 % 17 % 1021 hPa 0,0 l/m 0,0 km/h (0 Bft) 0 min 0 min
27.05.2018 06:30 22,2 C 15,0 C 16,4 C 92 % 17 % 1021 hPa 0,0 l/m 0,0 km/h (0 Bft) 0 min 0 min
27.05.2018 06:33 22,2 C 15,0 C 16,5 C 93 % 17 % 1021 hPa 0,0 l/m 0,0 km/h (0 Bft) 0 min 0 min
27.05.2018 06:36 22,2 C 15,0 C 16,6 C 93 % 17 % 1021 hPa 0,0 l/m 0,0 km/h (0 Bft) 0 min 0 min
27.05.2018 06:39 22,2 C 15,0 C 16,5 C 93 % 16 % 1021 hPa 0,0 l/m 0,0 km/h (0 Bft) 0 min 0 min
27.05.2018 06:42 22,2 C 15,0 C 16,6 C 94 % 16 % 1021 hPa 0,0 l/m 0,0 km/h (0 Bft) 0 min 0 min
27.05.2018 06:45 22,2 C 15,0 C 16,5 C 90 % 15 % 1021 hPa 0,0 l/m 0,0 km/h (0 Bft) 0 min 0 min
27.05.2018 06:48 22,2 C 15,0 C 16,5 C 91 % 15 % 1021 hPa 0,0 l/m 0,0 km/h (0 Bft) 0 min 0 min
27.05.2018 06:51 22,2 C 15,0 C 16,6 C 87 % 14 % 1021 hPa 0,0 l/m 0,1 km/h (0 Bft) 0 min 0 min
27.05.2018 06:54 22,2 C 15,0 C 16,6 C 90 % 14 % 1021 hPa 0,0 l/m 0,1 km/h (0 Bft) 0 min 0 min
27.05.2018 06:57 22,2 C 15,0 C 16,6 C 88 % 16 % 1021 hPa 0,0 l/m 0,7 km/h (0 Bft) 0 min 0 min
27.05.2018 07:00 22,2 C 15,0 C 16,6 C 87 % 21 % 1021 hPa 0,0 l/m 0,7 km/h (0 Bft) 0 min 0 min
27.05.2018 07:03 22,2 C 15,0 C 16,6 C 88 % 29 % 1021 hPa 0,0 l/m 0,0 km/h (0 Bft) 0 min 0 min
27.05.2018 07:06 22,2 C 15,0 C 16,7 C 88 % 22 % 1021 hPa 0,0 l/m 0,0 km/h (0 Bft) 0 min 0 min
27.05.2018 07:09 22,2 C 15,0 C 16,7 C 88 % 29 % 1021 hPa 0,0 l/m 0,0 km/h (0 Bft) 0 min 0 min
27.05.2018 07:12 22,2 C 15,0 C 16,8 C 87 % 31 % 1021 hPa 0,0 l/m 0,3 km/h (0 Bft) 0 min 0 min
27.05.2018 07:15 22,2 C 15,0 C 16,8 C 86 % 26 % 1021 hPa 0,0 l/m 3,0 km/h (1 Bft) 0 min 0 min
27.05.2018 07:18 22,2 C 15,0 C 16,9 C 87 % 27 % 1021 hPa 0,0 l/m 0,4 km/h (0 Bft) 0 min 0 min
27.05.2018 07:21 22,2 C 15,0 C 16,8 C 86 % 33 % 1021 hPa 0,0 l/m 0,4 km/h (0 Bft) 0 min 0 min
27.05.2018 07:24 22,2 C 15,0 C 16,8 C 87 % 32 % 1021 hPa 0,0 l/m 0,3 km/h (0 Bft) 0 min 0 min
27.05.2018 07:27 22,2 C 15,0 C 16,9 C 87 % 34 % 1021 hPa 0,0 l/m 0,3 km/h (0 Bft) 0 min 0 min
27.05.2018 07:30 22,2 C 15,0 C 17,0 C 87 % 31 % 1021 hPa 0,0 l/m 0,0 km/h (0 Bft) 0 min 0 min
27.05.2018 07:33 22,2 C 16,0 C 17,1 C 82 % 33 % 1021 hPa 0,0 l/m 0,1 km/h (0 Bft) 3 min 0 min
27.05.2018 07:36 22,2 C 16,0 C 17,1 C 83 % 33 % 1021 hPa 0,0 l/m 0,0 km/h (0 Bft) 3 min 0 min
27.05.2018 07:39 22,2 C 16,0 C 17,1 C 81 % 33 % 1021 hPa 0,0 l/m 0,0 km/h (0 Bft) 3 min 0 min
27.05.2018 07:42 22,2 C 16,0 C 17,3 C 80 % 37 % 1021 hPa 0,0 l/m 0,0 km/h (0 Bft) 3 min 0 min
27.05.2018 07:45 22,2 C 17,0 C 17,4 C 80 % 38 % 1022 hPa 0,0 l/m 0,0 km/h (0 Bft) 3 min 0 min
27.05.2018 07:48 22,2 C 17,0 C 17,4 C 77 % 39 % 1022 hPa 0,0 l/m 0,0 km/h (0 Bft) 3 min 0 min
27.05.2018 07:51 22,2 C 17,0 C 17,4 C 78 % 39 % 1022 hPa 0,0 l/m 0,0 km/h (0 Bft) 3 min 0 min
27.05.2018 07:54 22,2 C 17,0 C 17,6 C 78 % 29 % 1022 hPa 0,0 l/m 0,0 km/h (0 Bft) 0 min 0 min
27.05.2018 07:57 22,3 C 17,0 C 17,6 C 74 % 39 % 1022 hPa 0,0 l/m 0,0 km/h (0 Bft) 3 min 0 min
27.05.2018 08:00 22,3 C 18,0 C 17,6 C 74 % 39 % 1022 hPa 0,0 l/m 0,6 km/h (0 Bft) 3 min 0 min
27.05.2018 08:03 22,3 C 18,0 C 17,6 C 73 % 38 % 1022 hPa 0,0 l/m 0,6 km/h (0 Bft) 0 min 0 min
27.05.2018 08:06 22,3 C 18,0 C 17,7 C 69 % 38 % 1022 hPa 0,0 l/m 0,0 km/h (0 Bft) 0 min 0 min
27.05.2018 08:09 22,2 C 18,0 C 17,7 C 71 % 32 % 1022 hPa 0,0 l/m 0,3 km/h (0 Bft) 0 min 0 min
27.05.2018 08:12 22,3 C 19,0 C 17,8 C 72 % 38 % 1022 hPa 0,0 l/m 1,0 km/h (0 Bft) 0 min 0 min
27.05.2018 08:15 22,3 C 19,0 C 18,0 C 72 % 38 % 1022 hPa 0,0 l/m 4,3 km/h (1 Bft) 0 min 0 min
27.05.2018 08:18 22,3 C 19,0 C 17,8 C 71 % 36 % 1022 hPa 0,0 l/m 4,1 km/h (1 Bft) 0 min 0 min
27.05.2018 08:21 22,3 C 19,0 C 17,9 C 69 % 35 % 1022 hPa 0,0 l/m 5,2 km/h (1 Bft) 0 min 0 min
27.05.2018 08:24 22,2 C 19,0 C 17,9 C 69 % 33 % 1022 hPa 0,0 l/m 3,9 km/h (1 Bft) 0 min 0 min
27.05.2018 08:27 22,2 C 20,0 C 18,0 C 70 % 32 % 1022 hPa 0,0 l/m 2,1 km/h (1 Bft) 0 min 0 min
27.05.2018 08:30 22,2 C 20,0 C 18,0 C 68 % 39 % 1022 hPa 0,0 l/m 6,8 km/h (2 Bft) 0 min 0 min
27.05.2018 08:33 22,2 C 20,0 C 18,2 C 67 % 41 % 1022 hPa 0,0 l/m 5,6 km/h (1 Bft) 0 min 0 min
27.05.2018 08:36 22,3 C 20,0 C 18,2 C 67 % 41 % 1022 hPa 0,0 l/m 5,9 km/h (2 Bft) 0 min 0 min
27.05.2018 08:39 22,3 C 20,0 C 18,4 C 67 % 41 % 1022 hPa 0,0 l/m 4,0 km/h (1 Bft) 0 min 0 min
27.05.2018 08:42 22,3 C 20,0 C 18,3 C 67 % 41 % 1022 hPa 0,0 l/m 5,6 km/h (1 Bft) 0 min 0 min
27.05.2018 08:45 22,3 C 21,0 C 18,3 C 66 % 40 % 1022 hPa 0,0 l/m 4,1 km/h (1 Bft) 0 min 0 min
27.05.2018 08:48 22,3 C 21,0 C 18,4 C 64 % 40 % 1022 hPa 0,0 l/m 3,4 km/h (1 Bft) 0 min 0 min
27.05.2018 08:51 22,3 C 21,0 C 18,4 C 66 % 41 % 1022 hPa 0,0 l/m 3,4 km/h (1 Bft) 0 min 0 min
27.05.2018 08:54 22,3 C 21,0 C 18,5 C 65 % 41 % 1022 hPa 0,0 l/m 9,2 km/h (2 Bft) 0 min 0 min
27.05.2018 08:57 22,3 C 21,0 C 18,5 C 64 % 40 % 1022 hPa 0,0 l/m 6,1 km/h (2 Bft) 0 min 0 min
27.05.2018 09:00 22,4 C 21,0 C 18,6 C 66 % 40 % 1022 hPa 0,0 l/m 7,8 km/h (2 Bft) 0 min 0 min
27.05.2018 09:03 22,4 C 21,0 C 18,7 C 64 % 40 % 1022 hPa 0,0 l/m 9,1 km/h (2 Bft) 0 min 0 min
27.05.2018 09:06 22,4 C 22,0 C 18,7 C 64 % 41 % 1022 hPa 0,0 l/m 3,7 km/h (1 Bft) 0 min 0 min
27.05.2018 09:09 22,4 C 22,0 C 18,9 C 64 % 42 % 1022 hPa 0,0 l/m 3,7 km/h (1 Bft) 0 min 0 min
27.05.2018 09:12 22,4 C 23,0 C 19,1 C 64 % 42 % 1022 hPa 0,0 l/m 4,2 km/h (1 Bft) 0 min 0 min
27.05.2018 09:15 22,4 C 23,0 C 18,9 C 62 % 42 % 1022 hPa 0,0 l/m 7,6 km/h (2 Bft) 0 min 0 min
27.05.2018 09:18 22,4 C 23,0 C 19,3 C 63 % 42 % 1022 hPa 0,0 l/m 8,6 km/h (2 Bft) 0 min 0 min
27.05.2018 09:21 22,4 C 23,0 C 19,3 C 62 % 42 % 1022 hPa 0,0 l/m 4,3 km/h (1 Bft) 0 min 0 min
27.05.2018 09:24 22,4 C 23,0 C 19,2 C 61 % 43 % 1022 hPa 0,0 l/m 7,3 km/h (2 Bft) 0 min 0 min
27.05.2018 09:27 22,4 C 24,0 C 19,3 C 61 % 42 % 1022 hPa 0,0 l/m 8,9 km/h (2 Bft) 0 min 0 min
27.05.2018 09:30 22,4 C 24,0 C 19,4 C 61 % 42 % 1022 hPa 0,0 l/m 8,9 km/h (2 Bft) 0 min 0 min
27.05.2018 09:33 22,5 C 24,0 C 19,4 C 61 % 42 % 1022 hPa 0,0 l/m 6,8 km/h (2 Bft) 0 min 0 min
27.05.2018 09:36 22,5 C 24,0 C 19,4 C 60 % 44 % 1022 hPa 0,0 l/m 13,7 km/h (3 Bft) 0 min 0 min
27.05.2018 09:39 22,5 C 24,0 C 19,7 C 59 % 44 % 1022 hPa 0,0 l/m 11,6 km/h (2 Bft) 0 min 0 min
27.05.2018 09:42 22,5 C 24,7 C 19,8 C 58 % 45 % 1022 hPa 0,0 l/m 12,8 km/h (3 Bft) 0 min 0 min
27.05.2018 09:45 22,5 C 25,4 C 19,8 C 58 % 46 % 1022 hPa 0,0 l/m 11,1 km/h (2 Bft) 0 min 0 min
27.05.2018 09:48 22,5 C 25,4 C 20,0 C 58 % 46 % 1022 hPa 0,0 l/m 5,5 km/h (1 Bft) 0 min 0 min
27.05.2018 09:51 22,6 C 25,6 C 20,0 C 58 % 46 % 1022 hPa 0,0 l/m 11,7 km/h (2 Bft) 0 min 0 min
27.05.2018 09:54 22,7 C 26,5 C 20,0 C 56 % 50 % 1022 hPa 0,0 l/m 11,7 km/h (2 Bft) 0 min 0 min
27.05.2018 09:57 22,7 C 26,4 C 20,0 C 57 % 51 % 1022 hPa 0,0 l/m 8,7 km/h (2 Bft) 0 min 0 min
27.05.2018 10:00 22,8 C 25,8 C 20,2 C 56 % 52 % 1022 hPa 0,0 l/m 11,1 km/h (2 Bft) 0 min 0 min
27.05.2018 10:03 22,8 C 26,2 C 20,4 C 56 % 53 % 1022 hPa 0,0 l/m 14,5 km/h (3 Bft) 3 min 0 min
27.05.2018 10:06 22,8 C 26,0 C 20,1 C 58 % 54 % 1022 hPa 0,0 l/m 12,8 km/h (3 Bft) 3 min 0 min
27.05.2018 10:09 22,8 C 26,2 C 20,3 C 57 % 57 % 1022 hPa 0,0 l/m 12,8 km/h (3 Bft) 3 min 0 min
27.05.2018 10:12 22,8 C 26,3 C 20,6 C 58 % 58 % 1022 hPa 0,0 l/m 10,8 km/h (2 Bft) 3 min 0 min
27.05.2018 10:15 22,8 C 26,0 C 20,6 C 59 % 59 % 1022 hPa 0,0 l/m 10,8 km/h (2 Bft) 3 min 0 min
27.05.2018 10:18 22,8 C 26,0 C 20,5 C 59 % 60 % 1022 hPa 0,0 l/m 10,8 km/h (2 Bft) 3 min 0 min
27.05.2018 10:21 22,7 C 25,9 C 20,6 C 58 % 62 % 1022 hPa 0,0 l/m 30,8 km/h (5 Bft) 3 min 0 min
27.05.2018 10:24 22,7 C 26,6 C 20,7 C 57 % 63 % 1022 hPa 0,0 l/m 13,3 km/h (3 Bft) 3 min 0 min
27.05.2018 10:27 22,7 C 26,5 C 21,1 C 55 % 64 % 1022 hPa 0,0 l/m 11,8 km/h (2 Bft) 3 min 0 min
27.05.2018 10:30 22,7 C 26,5 C 20,7 C 55 % 63 % 1022 hPa 0,0 l/m 10,5 km/h (2 Bft) 3 min 0 min
27.05.2018 10:33 22,7 C 26,7 C 20,8 C 56 % 71 % 1022 hPa 0,0 l/m 10,1 km/h (2 Bft) 3 min 0 min
27.05.2018 10:36 22,7 C 27,2 C 20,9 C 57 % 72 % 1022 hPa 0,0 l/m 10,1 km/h (2 Bft) 3 min 0 min
27.05.2018 10:39 22,7 C 27,0 C 21,1 C 58 % 70 % 1022 hPa 0,0 l/m 8,3 km/h (2 Bft) 3 min 0 min
27.05.2018 10:42 22,7 C 26,8 C 21,1 C 56 % 76 % 1022 hPa 0,0 l/m 8,3 km/h (2 Bft) 3 min 0 min
27.05.2018 10:45 22,7 C 26,8 C 21,1 C 56 % 77 % 1022 hPa 0,0 l/m 12,3 km/h (3 Bft) 3 min 0 min
27.05.2018 10:48 22,7 C 27,2 C 21,1 C 57 % 77 % 1021 hPa 0,0 l/m 12,3 km/h (3 Bft) 3 min 0 min
27.05.2018 10:51 22,7 C 27,1 C 21,3 C 58 % 78 % 1021 hPa 0,0 l/m 13,2 km/h (3 Bft) 3 min 0 min
27.05.2018 10:54 22,7 C 26,7 C 21,3 C 57 % 78 % 1021 hPa 0,0 l/m 16,1 km/h (3 Bft) 3 min 0 min
27.05.2018 10:57 22,7 C 26,9 C 21,4 C 56 % 77 % 1021 hPa 0,0 l/m 14,3 km/h (3 Bft) 3 min 0 min
27.05.2018 11:00 22,6 C 26,9 C 21,6 C 56 % 78 % 1021 hPa 0,0 l/m 17,5 km/h (3 Bft) 3 min 0 min
27.05.2018 11:03 22,7 C 26,8 C 21,5 C 56 % 77 % 1021 hPa 0,0 l/m 12,5 km/h (3 Bft) 3 min 0 min
27.05.2018 11:06 22,7 C 27,7 C 21,7 C 57 % 77 % 1021 hPa 0,0 l/m 11,4 km/h (2 Bft) 3 min 0 min
27.05.2018 11:09 22,7 C 26,8 C 21,8 C 57 % 76 % 1021 hPa 0,0 l/m 8,7 km/h (2 Bft) 3 min 0 min
27.05.2018 11:12 22,7 C 26,6 C 21,7 C 56 % 75 % 1021 hPa 0,0 l/m 11,3 km/h (2 Bft) 3 min 0 min
27.05.2018 11:15 22,7 C 26,6 C 21,7 C 59 % 75 % 1021 hPa 0,0 l/m 10,7 km/h (2 Bft) 3 min 0 min
27.05.2018 11:18 22,8 C 27,0 C 22,0 C 54 % 77 % 1021 hPa 0,0 l/m 12,5 km/h (3 Bft) 3 min 0 min
27.05.2018 11:21 22,7 C 27,4 C 21,9 C 58 % 77 % 1021 hPa 0,0 l/m 12,3 km/h (3 Bft) 3 min 0 min
27.05.2018 11:24 22,7 C 27,4 C 22,0 C 58 % 77 % 1021 hPa 0,0 l/m 11,8 km/h (2 Bft) 3 min 0 min
27.05.2018 11:27 22,8 C 27,9 C 22,0 C 53 % 78 % 1021 hPa 0,0 l/m 13,0 km/h (3 Bft) 3 min 0 min
27.05.2018 11:30 22,8 C 27,4 C 22,0 C 55 % 78 % 1021 hPa 0,0 l/m 10,2 km/h (2 Bft) 3 min 0 min
27.05.2018 11:33 22,8 C 27,3 C 22,2 C 56 % 78 % 1021 hPa 0,0 l/m 9,7 km/h (2 Bft) 3 min 0 min
27.05.2018 11:36 22,8 C 27,3 C 22,3 C 56 % 76 % 1021 hPa 0,0 l/m 11,6 km/h (2 Bft) 3 min 0 min
27.05.2018 11:39 22,8 C 26,8 C 22,1 C 53 % 78 % 1021 hPa 0,0 l/m 10,4 km/h (2 Bft) 3 min 0 min
27.05.2018 11:42 22,7 C 26,4 C 22,8 C 55 % 74 % 1021 hPa 0,0 l/m 14,1 km/h (3 Bft) 3 min 0 min
27.05.2018 11:45 22,8 C 25,8 C 22,5 C 55 % 78 % 1021 hPa 0,0 l/m 8,3 km/h (2 Bft) 3 min 0 min
27.05.2018 11:48 22,8 C 25,8 C 22,4 C 56 % 78 % 1021 hPa 0,0 l/m 6,7 km/h (2 Bft) 3 min 0 min
27.05.2018 11:51 22,8 C 25,9 C 22,6 C 55 % 78 % 1021 hPa 0,0 l/m 10,2 km/h (2 Bft) 3 min 0 min
27.05.2018 11:54 22,8 C 25,8 C 22,3 C 56 % 78 % 1021 hPa 0,0 l/m 9,2 km/h (2 Bft) 3 min 0 min
27.05.2018 11:57 22,8 C 26,0 C 22,6 C 57 % 79 % 1021 hPa 0,0 l/m 6,2 km/h (2 Bft) 3 min 0 min
27.05.2018 12:00 22,8 C 25,9 C 22,6 C 56 % 78 % 1021 hPa 0,0 l/m 12,6 km/h (3 Bft) 3 min 0 min
27.05.2018 12:03 22,8 C 25,9 C 22,9 C 55 % 76 % 1021 hPa 0,0 l/m 7,4 km/h (2 Bft) 3 min 0 min
27.05.2018 12:06 22,8 C 26,0 C 22,6 C 53 % 76 % 1021 hPa 0,0 l/m 8,5 km/h (2 Bft) 3 min 0 min
27.05.2018 12:09 22,8 C 26,0 C 22,9 C 53 % 78 % 1021 hPa 0,0 l/m 9,8 km/h (2 Bft) 3 min 0 min
27.05.2018 12:12 22,8 C 26,2 C 22,8 C 57 % 79 % 1021 hPa 0,0 l/m 11,5 km/h (2 Bft) 3 min 0 min
27.05.2018 12:15 22,8 C 26,2 C 22,9 C 57 % 79 % 1021 hPa 0,0 l/m 9,4 km/h (2 Bft) 3 min 0 min
27.05.2018 12:18 22,8 C 26,1 C 23,2 C 53 % 79 % 1021 hPa 0,0 l/m 10,8 km/h (2 Bft) 3 min 0 min
27.05.2018 12:21 22,8 C 26,0 C 23,0 C 53 % 79 % 1021 hPa 0,0 l/m 10,0 km/h (2 Bft) 3 min 0 min
27.05.2018 12:24 22,8 C 25,9 C 22,8 C 53 % 79 % 1021 hPa 0,0 l/m 9,5 km/h (2 Bft) 3 min 0 min
27.05.2018 12:27 22,8 C 25,9 C 23,1 C 51 % 78 % 1021 hPa 0,0 l/m 13,0 km/h (3 Bft) 3 min 0 min
27.05.2018 12:30 22,8 C 25,9 C 23,1 C 51 % 77 % 1021 hPa 0,0 l/m 8,4 km/h (2 Bft) 3 min 0 min
27.05.2018 12:33 22,8 C 26,0 C 23,0 C 51 % 78 % 1021 hPa 0,0 l/m 8,4 km/h (2 Bft) 3 min 0 min
27.05.2018 12:36 22,8 C 26,1 C 23,1 C 53 % 78 % 1021 hPa 0,0 l/m 9,4 km/h (2 Bft) 3 min 0 min
27.05.2018 12:39 22,8 C 26,0 C 23,0 C 53 % 78 % 1021 hPa 0,0 l/m 6,8 km/h (2 Bft) 3 min 0 min
27.05.2018 12:42 22,8 C 26,2 C 23,1 C 53 % 76 % 1021 hPa 0,0 l/m 6,8 km/h (2 Bft) 3 min 0 min
27.05.2018 12:45 22,8 C 26,2 C 23,2 C 53 % 79 % 1021 hPa 0,0 l/m 8,2 km/h (2 Bft) 3 min 0 min
27.05.2018 12:48 22,8 C 26,4 C 23,2 C 54 % 79 % 1021 hPa 0,0 l/m 6,9 km/h (2 Bft) 3 min 0 min
27.05.2018 12:51 22,9 C 26,4 C 23,4 C 52 % 79 % 1021 hPa 0,0 l/m 10,9 km/h (2 Bft) 3 min 0 min
27.05.2018 12:54 22,8 C 26,5 C 23,4 C 53 % 79 % 1021 hPa 0,0 l/m 9,2 km/h (2 Bft) 3 min 0 min
27.05.2018 12:57 22,9 C 26,4 C 23,4 C 52 % 76 % 1021 hPa 0,0 l/m 9,3 km/h (2 Bft) 3 min 0 min
27.05.2018 13:00 22,8 C 26,5 C 23,5 C 52 % 77 % 1021 hPa 0,0 l/m 8,9 km/h (2 Bft) 3 min 0 min
27.05.2018 13:03 22,8 C 26,4 C 23,6 C 53 % 79 % 1021 hPa 0,0 l/m 3,1 km/h (1 Bft) 3 min 0 min
27.05.2018 13:06 22,9 C 26,5 C 23,3 C 53 % 79 % 1021 hPa 0,0 l/m 7,6 km/h (2 Bft) 3 min 0 min
27.05.2018 13:09 22,8 C 26,5 C 23,6 C 53 % 79 % 1021 hPa 0,0 l/m 5,2 km/h (1 Bft) 3 min 0 min
27.05.2018 13:12 22,8 C 26,4 C 23,4 C 54 % 77 % 1020 hPa 0,0 l/m 2,7 km/h (1 Bft) 3 min 0 min
27.05.2018 13:15 22,8 C 26,3 C 23,6 C 54 % 75 % 1021 hPa 0,0 l/m 5,6 km/h (1 Bft) 3 min 0 min
27.05.2018 13:18 22,9 C 26,4 C 23,5 C 52 % 79 % 1020 hPa 0,0 l/m 6,6 km/h (2 Bft) 3 min 0 min
27.05.2018 13:21 22,8 C 26,4 C 23,7 C 54 % 80 % 1020 hPa 0,0 l/m 0,3 km/h (0 Bft) 3 min 0 min
27.05.2018 13:24 22,9 C 26,6 C 23,7 C 56 % 80 % 1020 hPa 0,0 l/m 0,3 km/h (0 Bft) 3 min 0 min
27.05.2018 13:27 22,8 C 26,7 C 24,2 C 50 % 80 % 1020 hPa 0,0 l/m 8,1 km/h (2 Bft) 3 min 0 min
27.05.2018 13:30 22,8 C 26,7 C 24,2 C 49 % 80 % 1020 hPa 0,0 l/m 12,1 km/h (2 Bft) 3 min 0 min
27.05.2018 13:33 22,8 C 26,7 C 24,1 C 52 % 80 % 1020 hPa 0,0 l/m 6,3 km/h (2 Bft) 3 min 0 min
27.05.2018 13:36 22,8 C 26,7 C 24,4 C 49 % 79 % 1020 hPa 0,0 l/m 5,9 km/h (2 Bft) 3 min 0 min
27.05.2018 13:39 22,8 C 26,5 C 23,9 C 50 % 78 % 1020 hPa 0,0 l/m 5,7 km/h (1 Bft) 3 min 0 min
27.05.2018 13:42 22,8 C 26,4 C 24,3 C 50 % 79 % 1020 hPa 0,0 l/m 9,6 km/h (2 Bft) 3 min 0 min
27.05.2018 13:45 22,8 C 26,3 C 24,0 C 50 % 76 % 1020 hPa 0,0 l/m 3,8 km/h (1 Bft) 3 min 0 min
27.05.2018 13:48 22,8 C 26,3 C 24,2 C 53 % 76 % 1020 hPa 0,0 l/m 8,7 km/h (2 Bft) 3 min 0 min
27.05.2018 13:51 22,8 C 26,0 C 24,1 C 50 % 76 % 1020 hPa 0,0 l/m 7,8 km/h (2 Bft) 3 min 0 min
27.05.2018 13:54 22,8 C 26,1 C 24,0 C 47 % 71 % 1020 hPa 0,0 l/m 8,7 km/h (2 Bft) 3 min 0 min
27.05.2018 13:57 22,8 C 26,1 C 24,0 C 54 % 77 % 1020 hPa 0,0 l/m 5,1 km/h (1 Bft) 3 min 0 min
27.05.2018 14:00 22,8 C 26,0 C 24,3 C 46 % 80 % 1020 hPa 0,0 l/m 3,2 km/h (1 Bft) 3 min 0 min
27.05.2018 14:03 22,9 C 26,2 C 24,0 C 50 % 80 % 1020 hPa 0,0 l/m 4,2 km/h (1 Bft) 3 min 0 min
27.05.2018 14:06 22,9 C 26,4 C 24,8 C 50 % 80 % 1020 hPa 0,0 l/m 5,4 km/h (1 Bft) 3 min 0 min
27.05.2018 14:09 22,8 C 26,5 C 24,7 C 52 % 80 % 1020 hPa 0,0 l/m 5,9 km/h (2 Bft) 3 min 0 min
27.05.2018 14:12 22,8 C 26,7 C 24,8 C 51 % 80 % 1020 hPa 0,0 l/m 8,8 km/h (2 Bft) 3 min 0 min
27.05.2018 14:15 22,8 C 26,8 C 25,0 C 47 % 80 % 1020 hPa 0,0 l/m 3,9 km/h (1 Bft) 3 min 0 min
27.05.2018 14:18 22,8 C 26,7 C 24,9 C 45 % 80 % 1020 hPa 0,0 l/m 3,9 km/h (1 Bft) 3 min 0 min
27.05.2018 14:21 22,8 C 26,8 C 24,9 C 47 % 80 % 1020 hPa 0,0 l/m 9,4 km/h (2 Bft) 3 min 0 min
27.05.2018 14:24 22,8 C 27,1 C 24,6 C 47 % 80 % 1020 hPa 0,0 l/m 10,6 km/h (2 Bft) 3 min 0 min
27.05.2018 14:27 22,9 C 27,2 C 24,6 C 46 % 80 % 1020 hPa 0,0 l/m 10,6 km/h (2 Bft) 3 min 0 min
27.05.2018 14:30 22,9 C 27,3 C 24,7 C 48 % 80 % 1020 hPa 0,0 l/m 12,6 km/h (3 Bft) 3 min 0 min
27.05.2018 14:33 22,9 C 27,3 C 24,6 C 48 % 80 % 1020 hPa 0,0 l/m 12,6 km/h (3 Bft) 3 min 0 min
27.05.2018 14:36 22,9 C 27,6 C 24,9 C 44 % 80 % 1020 hPa 0,0 l/m 13,6 km/h (3 Bft) 3 min 0 min
27.05.2018 14:39 22,8 C 27,6 C 24,9 C 43 % 80 % 1020 hPa 0,0 l/m 9,8 km/h (2 Bft) 3 min 0 min
27.05.2018 14:42 22,9 C 27,7 C 24,7 C 47 % 80 % 1020 hPa 0,0 l/m 6,3 km/h (2 Bft) 3 min 0 min
27.05.2018 14:45 22,9 C 27,7 C 24,8 C 44 % 80 % 1020 hPa 0,0 l/m 7,1 km/h (2 Bft) 3 min 0 min
27.05.2018 14:48 22,9 C 27,6 C 25,2 C 45 % 80 % 1020 hPa 0,0 l/m 7,1 km/h (2 Bft) 3 min 0 min
27.05.2018 14:51 22,9 C 27,6 C 24,8 C 45 % 79 % 1020 hPa 0,0 l/m 7,8 km/h (2 Bft) 3 min 0 min
27.05.2018 14:54 22,9 C 27,6 C 25,0 C 44 % 79 % 1020 hPa 0,0 l/m 9,2 km/h (2 Bft) 3 min 0 min
27.05.2018 14:57 22,9 C 27,6 C 25,0 C 45 % 79 % 1020 hPa 0,0 l/m 11,6 km/h (2 Bft) 3 min 0 min
27.05.2018 15:00 22,9 C 27,6 C 25,1 C 45 % 79 % 1019 hPa 0,0 l/m 8,9 km/h (2 Bft) 3 min 0 min
27.05.2018 15:03 22,9 C 27,7 C 25,3 C 45 % 80 % 1019 hPa 0,0 l/m 9,6 km/h (2 Bft) 3 min 0 min
27.05.2018 15:06 22,9 C 27,7 C 25,3 C 44 % 80 % 1019 hPa 0,0 l/m 11,6 km/h (2 Bft) 3 min 0 min
27.05.2018 15:09 22,9 C 27,5 C 25,3 C 44 % 80 % 1019 hPa 0,0 l/m 10,8 km/h (2 Bft) 3 min 0 min
27.05.2018 15:12 22,9 C 27,7 C 25,5 C 45 % 80 % 1019 hPa 0,0 l/m 11,8 km/h (2 Bft) 3 min 0 min
27.05.2018 15:15 23,0 C 27,7 C 25,2 C 45 % 80 % 1019 hPa 0,0 l/m 9,1 km/h (2 Bft) 3 min 0 min
27.05.2018 15:18 23,0 C 28,0 C 25,0 C 45 % 80 % 1019 hPa 0,0 l/m 11,5 km/h (2 Bft) 3 min 0 min
27.05.2018 15:21 23,0 C 28,2 C 25,4 C 42 % 80 % 1019 hPa 0,0 l/m 13,3 km/h (3 Bft) 3 min 0 min
27.05.2018 15:24 23,0 C 28,5 C 25,2 C 44 % 79 % 1019 hPa 0,0 l/m 11,1 km/h (2 Bft) 3 min 0 min
27.05.2018 15:27 23,0 C 28,6 C 25,2 C 44 % 79 % 1019 hPa 0,0 l/m 9,1 km/h (2 Bft) 3 min 0 min
27.05.2018 15:30 23,0 C 28,7 C 25,2 C 46 % 79 % 1019 hPa 0,0 l/m 8,5 km/h (2 Bft) 3 min 0 min
27.05.2018 15:33 23,0 C 28,9 C 25,1 C 44 % 79 % 1019 hPa 0,0 l/m 8,6 km/h (2 Bft) 3 min 0 min
27.05.2018 15:36 23,0 C 29,0 C 25,3 C 42 % 79 % 1019 hPa 0,0 l/m 9,8 km/h (2 Bft) 3 min 0 min
27.05.2018 15:39 23,0 C 29,3 C 25,3 C 43 % 79 % 1019 hPa 0,0 l/m 12,4 km/h (3 Bft) 3 min 0 min
27.05.2018 15:42 23,0 C 29,5 C 25,3 C 41 % 79 % 1019 hPa 0,0 l/m 10,9 km/h (2 Bft) 3 min 0 min
27.05.2018 15:45 23,1 C 29,4 C 25,4 C 44 % 79 % 1019 hPa 0,0 l/m 9,1 km/h (2 Bft) 3 min 0 min
27.05.2018 15:48 23,1 C 29,4 C 25,2 C 44 % 79 % 1019 hPa 0,0 l/m 7,6 km/h (2 Bft) 3 min 0 min
27.05.2018 15:51 23,1 C 29,5 C 25,6 C 40 % 79 % 1019 hPa 0,0 l/m 10,5 km/h (2 Bft) 3 min 0 min
27.05.2018 15:54 23,2 C 30,0 C 25,4 C 42 % 79 % 1019 hPa 0,0 l/m 10,7 km/h (2 Bft) 3 min 0 min
27.05.2018 15:57 23,2 C 30,2 C 25,4 C 42 % 79 % 1019 hPa 0,0 l/m 12,3 km/h (3 Bft) 3 min 0 min
27.05.2018 16:00 23,2 C 30,2 C 25,4 C 40 % 78 % 1019 hPa 0,0 l/m 9,4 km/h (2 Bft) 3 min 0 min
27.05.2018 16:03 23,2 C 30,2 C 25,2 C 40 % 79 % 1019 hPa 0,0 l/m 6,3 km/h (2 Bft) 3 min 0 min
27.05.2018 16:06 23,2 C 30,4 C 25,8 C 40 % 79 % 1019 hPa 0,0 l/m 10,1 km/h (2 Bft) 3 min 0 min
27.05.2018 16:09 23,2 C 30,6 C 25,6 C 42 % 79 % 1019 hPa 0,0 l/m 7,9 km/h (2 Bft) 3 min 0 min
27.05.2018 16:12 23,1 C 30,8 C 25,6 C 41 % 79 % 1019 hPa 0,0 l/m 11,5 km/h (2 Bft) 3 min 0 min
27.05.2018 16:15 23,1 C 30,6 C 25,6 C 37 % 79 % 1019 hPa 0,0 l/m 7,9 km/h (2 Bft) 3 min 0 min
27.05.2018 16:18 23,1 C 30,6 C 25,3 C 38 % 79 % 1019 hPa 0,0 l/m 8,1 km/h (2 Bft) 3 min 0 min
27.05.2018 16:21 23,2 C 30,6 C 25,1 C 38 % 79 % 1019 hPa 0,0 l/m 3,9 km/h (1 Bft) 3 min 0 min
27.05.2018 16:24 23,1 C 29,9 C 25,1 C 40 % 79 % 1019 hPa 0,0 l/m 3,9 km/h (1 Bft) 3 min 0 min
27.05.2018 16:27 23,1 C 29,9 C 25,6 C 40 % 79 % 1019 hPa 0,0 l/m 9,4 km/h (2 Bft) 3 min 0 min
27.05.2018 16:30 23,2 C 29,4 C 25,4 C 41 % 79 % 1019 hPa 0,0 l/m 9,1 km/h (2 Bft) 3 min 0 min
27.05.2018 16:33 23,1 C 29,4 C 25,4 C 40 % 78 % 1019 hPa 0,0 l/m 10,8 km/h (2 Bft) 3 min 0 min
27.05.2018 16:36 23,2 C 29,3 C 25,8 C 38 % 78 % 1019 hPa 0,0 l/m 7,0 km/h (2 Bft) 3 min 0 min
27.05.2018 16:39 23,2 C 28,4 C 25,3 C 39 % 79 % 1019 hPa 0,0 l/m 6,3 km/h (2 Bft) 3 min 0 min
27.05.2018 16:42 23,1 C 29,0 C 25,5 C 36 % 80 % 1019 hPa 0,0 l/m 7,2 km/h (2 Bft) 3 min 0 min
27.05.2018 16:45 23,1 C 28,7 C 25,7 C 36 % 80 % 1019 hPa 0,0 l/m 7,8 km/h (2 Bft) 3 min 0 min
27.05.2018 16:48 23,1 C 28,9 C 25,7 C 35 % 80 % 1019 hPa 0,0 l/m 5,2 km/h (1 Bft) 3 min 0 min
27.05.2018 16:51 23,1 C 28,6 C 25,1 C 38 % 79 % 1019 hPa 0,0 l/m 5,9 km/h (2 Bft) 3 min 0 min
27.05.2018 16:54 23,1 C 28,8 C 26,0 C 35 % 79 % 1019 hPa 0,0 l/m 4,5 km/h (1 Bft) 3 min 0 min
27.05.2018 16:57 23,2 C 28,9 C 25,8 C 36 % 79 % 1019 hPa 0,0 l/m 8,9 km/h (2 Bft) 3 min 0 min
27.05.2018 17:00 23,1 C 28,9 C 25,8 C 32 % 71 % 1019 hPa 0,0 l/m 7,8 km/h (2 Bft) 3 min 0 min
27.05.2018 17:03 23,1 C 28,4 C 25,9 C 32 % 76 % 1019 hPa 0,0 l/m 10,0 km/h (2 Bft) 3 min 0 min
27.05.2018 17:06 23,1 C 28,5 C 25,6 C 32 % 63 % 1019 hPa 0,0 l/m 5,3 km/h (1 Bft) 3 min 0 min
27.05.2018 17:09 23,2 C 28,4 C 25,4 C 32 % 69 % 1019 hPa 0,0 l/m 7,9 km/h (2 Bft) 3 min 0 min
27.05.2018 17:12 23,1 C 28,1 C 25,5 C 33 % 71 % 1019 hPa 0,0 l/m 8,6 km/h (2 Bft) 3 min 0 min
27.05.2018 17:15 23,2 C 28,0 C 25,5 C 33 % 58 % 1019 hPa 0,0 l/m 10,1 km/h (2 Bft) 3 min 0 min
27.05.2018 17:18 23,2 C 28,2 C 25,5 C 33 % 79 % 1019 hPa 0,0 l/m 11,9 km/h (2 Bft) 3 min 0 min
27.05.2018 17:21 23,2 C 28,3 C 25,3 C 34 % 79 % 1019 hPa 0,0 l/m 12,3 km/h (3 Bft) 3 min 0 min
27.05.2018 17:24 23,2 C 28,4 C 25,5 C 32 % 79 % 1019 hPa 0,0 l/m 11,6 km/h (2 Bft) 3 min 0 min
27.05.2018 17:27 23,2 C 28,4 C 25,5 C 32 % 78 % 1019 hPa 0,0 l/m 12,1 km/h (2 Bft) 3 min 0 min
27.05.2018 17:30 23,2 C 28,6 C 25,6 C 32 % 78 % 1019 hPa 0,0 l/m 11,8 km/h (2 Bft) 3 min 0 min
27.05.2018 17:33 23,2 C 28,7 C 25,8 C 36 % 78 % 1019 hPa 0,0 l/m 18,3 km/h (3 Bft) 3 min 0 min
27.05.2018 17:36 23,2 C 28,4 C 25,7 C 40 % 78 % 1019 hPa 0,0 l/m 18,3 km/h (3 Bft) 3 min 0 min
27.05.2018 17:39 23,2 C 28,1 C 25,4 C 43 % 78 % 1019 hPa 0,0 l/m 13,3 km/h (3 Bft) 3 min 0 min
27.05.2018 17:42 23,2 C 27,5 C 25,5 C 44 % 78 % 1019 hPa 0,0 l/m 17,0 km/h (3 Bft) 3 min 0 min
27.05.2018 17:45 23,2 C 27,3 C 25,4 C 45 % 78 % 1019 hPa 0,0 l/m 11,0 km/h (2 Bft) 3 min 0 min
27.05.2018 17:48 23,2 C 27,4 C 25,3 C 45 % 78 % 1019 hPa 0,0 l/m 7,5 km/h (2 Bft) 3 min 0 min
27.05.2018 17:51 23,2 C 28,0 C 25,2 C 46 % 78 % 1019 hPa 0,0 l/m 9,2 km/h (2 Bft) 3 min 0 min
27.05.2018 17:54 23,2 C 27,9 C 25,2 C 48 % 78 % 1019 hPa 0,0 l/m 9,2 km/h (2 Bft) 3 min 0 min
27.05.2018 17:57 23,2 C 28,0 C 25,3 C 45 % 78 % 1019 hPa 0,0 l/m 13,6 km/h (3 Bft) 3 min 0 min
27.05.2018 18:00 23,2 C 27,9 C 25,2 C 46 % 78 % 1019 hPa 0,0 l/m 8,9 km/h (2 Bft) 3 min 0 min
27.05.2018 18:03 23,2 C 26,9 C 25,2 C 47 % 78 % 1019 hPa 0,0 l/m 8,6 km/h (2 Bft) 3 min 0 min
27.05.2018 18:06 23,2 C 26,9 C 25,2 C 47 % 78 % 1019 hPa 0,0 l/m 7,6 km/h (2 Bft) 3 min 0 min
27.05.2018 18:09 23,2 C 26,5 C 25,1 C 48 % 78 % 1019 hPa 0,0 l/m 9,5 km/h (2 Bft) 3 min 0 min
27.05.2018 18:12 23,2 C 26,3 C 25,1 C 49 % 78 % 1019 hPa 0,0 l/m 7,8 km/h (2 Bft) 3 min 0 min
27.05.2018 18:15 23,2 C 26,7 C 25,1 C 47 % 78 % 1019 hPa 0,0 l/m 7,8 km/h (2 Bft) 3 min 0 min
27.05.2018 18:18 23,2 C 26,7 C 25,0 C 48 % 78 % 1019 hPa 0,0 l/m 7,8 km/h (2 Bft) 3 min 0 min
27.05.2018 18:21 23,2 C 26,5 C 24,9 C 50 % 78 % 1019 hPa 0,0 l/m 6,7 km/h (2 Bft) 3 min 0 min
27.05.2018 18:24 23,2 C 26,4 C 24,9 C 48 % 78 % 1019 hPa 0,0 l/m 4,9 km/h (1 Bft) 3 min 0 min
27.05.2018 18:27 23,2 C 26,7 C 25,0 C 48 % 78 % 1019 hPa 0,0 l/m 9,3 km/h (2 Bft) 3 min 0 min
27.05.2018 18:30 23,3 C 26,8 C 25,0 C 49 % 78 % 1019 hPa 0,0 l/m 7,9 km/h (2 Bft) 3 min 0 min
27.05.2018 18:33 23,3 C 26,8 C 25,0 C 47 % 78 % 1019 hPa 0,0 l/m 10,6 km/h (2 Bft) 3 min 0 min
27.05.2018 18:36 23,2 C 26,5 C 24,8 C 48 % 78 % 1019 hPa 0,0 l/m 9,0 km/h (2 Bft) 3 min 0 min
27.05.2018 18:39 23,2 C 26,6 C 24,8 C 49 % 78 % 1019 hPa 0,0 l/m 7,4 km/h (2 Bft) 3 min 0 min
27.05.2018 18:42 23,2 C 26,6 C 24,7 C 51 % 78 % 1019 hPa 0,0 l/m 5,0 km/h (1 Bft) 3 min 0 min
27.05.2018 18:45 23,2 C 26,6 C 24,7 C 51 % 78 % 1019 hPa 0,0 l/m 8,7 km/h (2 Bft) 3 min 0 min
27.05.2018 18:48 23,2 C 26,8 C 24,8 C 52 % 78 % 1019 hPa 0,0 l/m 10,8 km/h (2 Bft) 3 min 0 min
27.05.2018 18:51 23,2 C 26,8 C 24,7 C 54 % 78 % 1019 hPa 0,0 l/m 5,6 km/h (1 Bft) 3 min 0 min
27.05.2018 18:54 23,2 C 26,7 C 24,7 C 56 % 78 % 1019 hPa 0,0 l/m 0,4 km/h (0 Bft) 3 min 0 min
27.05.2018 18:57 23,3 C 26,4 C 24,5 C 57 % 78 % 1019 hPa 0,0 l/m 7,2 km/h (2 Bft) 3 min 0 min
27.05.2018 19:00 23,3 C 26,6 C 24,6 C 58 % 78 % 1019 hPa 0,0 l/m 12,2 km/h (2 Bft) 3 min 0 min
27.05.2018 19:03 23,3 C 26,5 C 24,5 C 60 % 78 % 1019 hPa 0,0 l/m 0,9 km/h (0 Bft) 3 min 0 min
27.05.2018 19:06 23,3 C 26,4 C 24,4 C 60 % 78 % 1019 hPa 0,0 l/m 8,4 km/h (2 Bft) 3 min 0 min
27.05.2018 19:09 23,3 C 25,9 C 24,4 C 61 % 78 % 1019 hPa 0,0 l/m 8,0 km/h (2 Bft) 3 min 0 min
27.05.2018 19:12 23,3 C 26,0 C 24,4 C 62 % 78 % 1019 hPa 0,0 l/m 6,0 km/h (2 Bft) 3 min 0 min
27.05.2018 19:15 23,3 C 26,0 C 24,3 C 62 % 78 % 1019 hPa 0,0 l/m 0,9 km/h (0 Bft) 3 min 0 min
27.05.2018 19:18 23,3 C 24,9 C 24,3 C 64 % 78 % 1019 hPa 0,0 l/m 1,2 km/h (1 Bft) 3 min 0 min
27.05.2018 19:21 23,2 C 24,6 C 24,2 C 65 % 78 % 1019 hPa 0,0 l/m 2,7 km/h (1 Bft) 3 min 0 min
27.05.2018 19:24 23,3 C 22,0 C 24,1 C 66 % 78 % 1019 hPa 0,0 l/m 2,5 km/h (1 Bft) 3 min 0 min
27.05.2018 19:27 23,3 C 22,0 C 24,1 C 66 % 78 % 1019 hPa 0,0 l/m 0,2 km/h (0 Bft) 3 min 0 min
27.05.2018 19:30 23,3 C 22,0 C 24,1 C 67 % 78 % 1020 hPa 0,0 l/m 0,4 km/h (0 Bft) 3 min 0 min
27.05.2018 19:33 23,3 C 22,0 C 24,0 C 67 % 78 % 1020 hPa 0,0 l/m 0,4 km/h (0 Bft) 3 min 0 min
27.05.2018 19:36 23,3 C 22,0 C 24,0 C 67 % 78 % 1020 hPa 0,0 l/m 0,0 km/h (0 Bft) 3 min 0 min
27.05.2018 19:39 23,3 C 22,0 C 23,9 C 68 % 78 % 1020 hPa 0,0 l/m 1,9 km/h (1 Bft) 3 min 0 min
27.05.2018 19:42 23,3 C 22,0 C 23,9 C 69 % 78 % 1020 hPa 0,0 l/m 0,1 km/h (0 Bft) 3 min 0 min
27.05.2018 19:45 23,3 C 22,0 C 23,8 C 69 % 78 % 1020 hPa 0,0 l/m 0,0 km/h (0 Bft) 3 min 0 min
27.05.2018 19:48 23,3 C 22,0 C 23,8 C 69 % 78 % 1020 hPa 0,0 l/m 0,8 km/h (0 Bft) 3 min 0 min
27.05.2018 19:51 23,3 C 22,0 C 23,7 C 69 % 78 % 1020 hPa 0,0 l/m 0,8 km/h (0 Bft) 3 min 0 min
27.05.2018 19:54 23,3 C 22,0 C 23,8 C 69 % 78 % 1020 hPa 0,0 l/m 0,3 km/h (0 Bft) 3 min 0 min
27.05.2018 19:57 23,3 C 22,0 C 23,7 C 69 % 78 % 1019 hPa 0,0 l/m 0,0 km/h (0 Bft) 3 min 0 min
27.05.2018 20:00 23,4 C 22,0 C 23,6 C 68 % 78 % 1019 hPa 0,0 l/m 0,0 km/h (0 Bft) 3 min 0 min
27.05.2018 20:03 23,4 C 22,0 C 23,6 C 68 % 78 % 1019 hPa 0,0 l/m 0,7 km/h (0 Bft) 3 min 0 min
27.05.2018 20:06 23,4 C 22,0 C 23,6 C 70 % 78 % 1019 hPa 0,0 l/m 4,0 km/h (1 Bft) 3 min 0 min
27.05.2018 20:09 23,4 C 22,0 C 23,6 C 70 % 78 % 1019 hPa 0,0 l/m 1,9 km/h (1 Bft) 3 min 0 min
27.05.2018 20:12 23,4 C 22,0 C 23,6 C 70 % 78 % 1019 hPa 0,0 l/m 1,9 km/h (1 Bft) 3 min 0 min
27.05.2018 20:15 23,5 C 22,0 C 23,5 C 70 % 78 % 1019 hPa 0,0 l/m 0,3 km/h (0 Bft) 3 min 0 min
27.05.2018 20:18 23,5 C 22,0 C 23,4 C 70 % 78 % 1019 hPa 0,0 l/m 4,4 km/h (1 Bft) 3 min 0 min
27.05.2018 20:21 23,5 C 22,0 C 23,3 C 70 % 78 % 1019 hPa 0,0 l/m 6,7 km/h (2 Bft) 3 min 0 min
27.05.2018 20:24 23,4 C 22,0 C 23,3 C 70 % 78 % 1019 hPa 0,0 l/m 4,8 km/h (1 Bft) 3 min 0 min
27.05.2018 20:27 23,4 C 22,0 C 23,2 C 70 % 78 % 1019 hPa 0,0 l/m 5,6 km/h (1 Bft) 3 min 0 min
27.05.2018 20:30 23,4 C 22,0 C 23,3 C 70 % 78 % 1019 hPa 0,0 l/m 2,8 km/h (1 Bft) 3 min 0 min
27.05.2018 20:33 23,4 C 22,0 C 23,2 C 70 % 78 % 1019 hPa 0,0 l/m 4,7 km/h (1 Bft) 3 min 0 min
27.05.2018 20:36 23,4 C 22,0 C 23,1 C 70 % 78 % 1019 hPa 0,0 l/m 8,3 km/h (2 Bft) 3 min 0 min
27.05.2018 20:39 23,4 C 22,0 C 23,1 C 70 % 78 % 1019 hPa 0,0 l/m 6,0 km/h (2 Bft) 3 min 0 min
27.05.2018 20:42 23,4 C 22,0 C 23,1 C 70 % 78 % 1019 hPa 0,0 l/m 7,0 km/h (2 Bft) 3 min 0 min
27.05.2018 20:45 23,4 C 22,0 C 23,0 C 70 % 78 % 1019 hPa 0,0 l/m 9,8 km/h (2 Bft) 0 min 0 min
27.05.2018 20:48 23,4 C 22,0 C 23,0 C 70 % 78 % 1019 hPa 0,0 l/m 0,2 km/h (0 Bft) 0 min 0 min
27.05.2018 20:51 23,3 C 22,0 C 22,9 C 70 % 78 % 1019 hPa 0,0 l/m 0,2 km/h (0 Bft) 0 min 0 min
27.05.2018 20:54 23,4 C 22,0 C 22,8 C 70 % 78 % 1019 hPa 0,0 l/m 0,0 km/h (0 Bft) 0 min 0 min
27.05.2018 20:57 23,4 C 22,0 C 22,7 C 68 % 78 % 1019 hPa 0,0 l/m 0,0 km/h (0 Bft) 0 min 0 min
27.05.2018 21:00 23,4 C 22,0 C 22,8 C 67 % 78 % 1019 hPa 0,0 l/m 0,0 km/h (0 Bft) 0 min 0 min
27.05.2018 21:03 23,4 C 22,0 C 22,6 C 67 % 78 % 1019 hPa 0,0 l/m 0,2 km/h (0 Bft) 0 min 0 min
27.05.2018 21:06 23,3 C 22,0 C 22,6 C 67 % 78 % 1019 hPa 0,0 l/m 1,7 km/h (1 Bft) 0 min 0 min
27.05.2018 21:09 23,3 C 22,0 C 22,6 C 67 % 78 % 1019 hPa 0,0 l/m 3,6 km/h (1 Bft) 0 min 0 min
27.05.2018 21:12 23,3 C 22,0 C 22,5 C 67 % 78 % 1019 hPa 0,0 l/m 2,7 km/h (1 Bft) 0 min 0 min
27.05.2018 21:15 23,3 C 22,0 C 22,5 C 67 % 78 % 1020 hPa 0,0 l/m 4,2 km/h (1 Bft) 0 min 0 min
27.05.2018 21:18 23,3 C 22,0 C 22,5 C 67 % 78 % 1020 hPa 0,0 l/m 3,8 km/h (1 Bft) 0 min 0 min
27.05.2018 21:21 23,3 C 22,0 C 22,5 C 67 % 78 % 1020 hPa 0,0 l/m 0,3 km/h (0 Bft) 0 min 0 min
27.05.2018 21:24 23,2 C 22,0 C 22,3 C 67 % 78 % 1020 hPa 0,0 l/m 0,6 km/h (0 Bft) 0 min 0 min
27.05.2018 21:27 23,3 C 22,0 C 22,4 C 67 % 78 % 1020 hPa 0,0 l/m 0,5 km/h (0 Bft) 0 min 0 min
27.05.2018 21:30 23,2 C 22,0 C 22,4 C 67 % 78 % 1020 hPa 0,0 l/m 5,4 km/h (1 Bft) 0 min 0 min
27.05.2018 21:33 23,2 C 22,0 C 22,3 C 67 % 78 % 1020 hPa 0,0 l/m 2,7 km/h (1 Bft) 0 min 0 min
27.05.2018 21:36 23,2 C 22,0 C 22,3 C 67 % 78 % 1020 hPa 0,0 l/m 0,0 km/h (0 Bft) 0 min 0 min
27.05.2018 21:39 23,2 C 22,0 C 22,2 C 67 % 78 % 1020 hPa 0,0 l/m 0,0 km/h (0 Bft) 0 min 0 min
27.05.2018 21:42 23,2 C 20,9 C 22,2 C 70 % 78 % 1020 hPa 0,0 l/m 3,3 km/h (1 Bft) 0 min 0 min
27.05.2018 21:45 23,1 C 20,8 C 22,1 C 70 % 78 % 1020 hPa 0,0 l/m 3,7 km/h (1 Bft) 0 min 0 min
27.05.2018 21:48 23,1 C 20,8 C 22,1 C 70 % 78 % 1020 hPa 0,0 l/m 0,2 km/h (0 Bft) 0 min 0 min
27.05.2018 21:51 23,1 C 20,8 C 22,1 C 71 % 78 % 1020 hPa 0,0 l/m 0,2 km/h (0 Bft) 0 min 0 min
27.05.2018 21:54 23,0 C 20,7 C 22,1 C 72 % 78 % 1020 hPa 0,0 l/m 0,1 km/h (0 Bft) 0 min 0 min
27.05.2018 21:57 23,0 C 20,7 C 22,1 C 72 % 78 % 1020 hPa 0,0 l/m 0,6 km/h (0 Bft) 0 min 0 min
27.05.2018 22:00 23,0 C 20,6 C 22,1 C 72 % 78 % 1020 hPa 0,0 l/m 0,6 km/h (0 Bft) 0 min 0 min
27.05.2018 22:03 23,0 C 20,6 C 21,9 C 72 % 78 % 1020 hPa 0,0 l/m 0,0 km/h (0 Bft) 0 min 0 min
27.05.2018 22:06 23,0 C 20,6 C 21,9 C 73 % 78 % 1020 hPa 0,0 l/m 0,0 km/h (0 Bft) 0 min 0 min
27.05.2018 22:09 23,0 C 20,6 C 21,9 C 72 % 78 % 1020 hPa 0,0 l/m 0,1 km/h (0 Bft) 0 min 0 min
27.05.2018 22:12 23,0 C 20,6 C 21,9 C 72 % 78 % 1020 hPa 0,0 l/m 0,0 km/h (0 Bft) 0 min 0 min
27.05.2018 22:15 23,0 C 20,6 C 21,9 C 72 % 78 % 1020 hPa 0,0 l/m 0,0 km/h (0 Bft) 0 min 0 min
27.05.2018 22:18 23,0 C 20,6 C 21,9 C 72 % 78 % 1020 hPa 0,0 l/m 0,0 km/h (0 Bft) 0 min 0 min
27.05.2018 22:21 22,9 C 20,5 C 21,8 C 72 % 78 % 1020 hPa 0,0 l/m 0,1 km/h (0 Bft) 0 min 0 min
27.05.2018 22:24 22,9 C 20,4 C 21,7 C 73 % 78 % 1020 hPa 0,0 l/m 0,0 km/h (0 Bft) 0 min 0 min
27.05.2018 22:27 22,9 C 20,2 C 21,7 C 74 % 78 % 1020 hPa 0,0 l/m 0,0 km/h (0 Bft) 0 min 0 min
27.05.2018 22:30 22,8 C 20,2 C 21,7 C 74 % 78 % 1020 hPa 0,0 l/m 0,0 km/h (0 Bft) 0 min 0 min
27.05.2018 22:33 22,8 C 20,2 C 21,7 C 75 % 78 % 1020 hPa 0,0 l/m 0,0 km/h (0 Bft) 0 min 0 min
27.05.2018 22:36 22,8 C 20,1 C 21,5 C 75 % 78 % 1020 hPa 0,0 l/m 0,0 km/h (0 Bft) 0 min 0 min
27.05.2018 22:39 22,8 C 20,1 C 21,6 C 75 % 78 % 1020 hPa 0,0 l/m 0,1 km/h (0 Bft) 0 min 0 min
27.05.2018 22:42 22,8 C 20,0 C 21,6 C 75 % 78 % 1020 hPa 0,0 l/m 0,0 km/h (0 Bft) 0 min 0 min
27.05.2018 22:45 22,8 C 19,9 C 21,4 C 75 % 78 % 1020 hPa 0,0 l/m 0,0 km/h (0 Bft) 0 min 0 min
27.05.2018 22:48 22,8 C 19,9 C 21,5 C 76 % 78 % 1020 hPa 0,0 l/m 0,0 km/h (0 Bft) 0 min 0 min
27.05.2018 22:51 22,8 C 20,0 C 21,4 C 75 % 78 % 1020 hPa 0,0 l/m 0,0 km/h (0 Bft) 0 min 0 min
27.05.2018 22:54 22,8 C 19,9 C 21,3 C 76 % 78 % 1020 hPa 0,0 l/m 0,0 km/h (0 Bft) 0 min 0 min
27.05.2018 22:57 22,8 C 19,8 C 21,4 C 76 % 78 % 1020 hPa 0,0 l/m 0,0 km/h (0 Bft) 0 min 0 min
27.05.2018 23:00 22,8 C 19,8 C 21,3 C 77 % 78 % 1020 hPa 0,0 l/m 0,0 km/h (0 Bft) 0 min 0 min
27.05.2018 23:03 22,7 C 19,8 C 21,3 C 77 % 78 % 1020 hPa 0,0 l/m 0,0 km/h (0 Bft) 0 min 0 min
27.05.2018 23:06 22,7 C 19,7 C 21,3 C 77 % 78 % 1020 hPa 0,0 l/m 0,0 km/h (0 Bft) 0 min 0 min
27.05.2018 23:09 22,7 C 19,8 C 21,3 C 77 % 78 % 1020 hPa 0,0 l/m 0,0 km/h (0 Bft) 0 min 0 min
27.05.2018 23:12 22,7 C 19,7 C 21,3 C 77 % 78 % 1020 hPa 0,0 l/m 0,0 km/h (0 Bft) 0 min 0 min
27.05.2018 23:15 22,6 C 19,7 C 21,3 C 77 % 78 % 1020 hPa 0,0 l/m 0,0 km/h (0 Bft) 0 min 0 min
27.05.2018 23:18 22,6 C 19,6 C 20,9 C 78 % 78 % 1020 hPa 0,0 l/m 0,0 km/h (0 Bft) 0 min 0 min
27.05.2018 23:21 22,6 C 19,6 C 21,1 C 78 % 78 % 1020 hPa 0,0 l/m 0,0 km/h (0 Bft) 0 min 0 min
27.05.2018 23:24 22,6 C 19,4 C 21,0 C 78 % 78 % 1020 hPa 0,0 l/m 0,0 km/h (0 Bft) 0 min 0 min
27.05.2018 23:27 22,6 C 19,4 C 21,1 C 78 % 78 % 1020 hPa 0,0 l/m 0,0 km/h (0 Bft) 0 min 0 min
27.05.2018 23:30 22,6 C 19,4 C 21,1 C 78 % 78 % 1020 hPa 0,0 l/m 0,0 km/h (0 Bft) 0 min 0 min
27.05.2018 23:33 22,6 C 19,4 C 21,0 C 78 % 78 % 1020 hPa 0,0 l/m 0,0 km/h (0 Bft) 0 min 0 min
27.05.2018 23:36 22,6 C 19,3 C 20,9 C 78 % 78 % 1020 hPa 0,0 l/m 0,0 km/h (0 Bft) 0 min 0 min
27.05.2018 23:39 22,5 C 19,2 C 20,8 C 79 % 78 % 1020 hPa 0,0 l/m 0,0 km/h (0 Bft) 0 min 0 min
27.05.2018 23:42 22,5 C 19,2 C 21,0 C 79 % 78 % 1020 hPa 0,0 l/m 1,5 km/h (1 Bft) 0 min 0 min
27.05.2018 23:45 22,5 C 19,1 C 20,8 C 79 % 78 % 1020 hPa 0,0 l/m 3,3 km/h (1 Bft) 0 min 0 min
27.05.2018 23:48 22,5 C 19,2 C 20,9 C 79 % 78 % 1020 hPa 0,0 l/m 0,9 km/h (0 Bft) 0 min 0 min
27.05.2018 23:51 22,5 C 19,2 C 20,9 C 78 % 78 % 1020 hPa 0,0 l/m 0,2 km/h (0 Bft) 0 min 0 min
27.05.2018 23:54 22,6 C 19,2 C 20,9 C 79 % 78 % 1020 hPa 0,0 l/m 0,6 km/h (0 Bft) 0 min 0 min
27.05.2018 23:57 22,5 C 19,2 C 20,8 C 78 % 78 % 1020 hPa 0,0 l/m 2,2 km/h (1 Bft) 0 min 0 min
_ Min-Zeit 06:03 02:39 05:45 17:00 - 15:00 - 00:03 - -
Minimum _ 22,1 C 15,0 C 16,3 C 32 % - 1019 hPa - 0,0 km/h (0 Bft) - -
_ Max-Zeit 20:15 16:12 16:54 06:42 14:03 00:00 00:00 10:21 05:27 00:00
Maximum _ 23,5 C 30,8 C 26,0 C 94 % 80 % 1023 hPa 0,0 l/m 30,8 km/h
SO (5 Bft)
3 min 0 min
Durchschnitt _ 22,7 C 21,7 C 21,1 C 66 % #11:33 h 1021 hPa #0,0 l/m 4,5 km/h (1 Bft) #11:33 h #0 min.